JQ1YUX-13 Tokyo Ota-ku JP current weather conditions

sailwx.info

Wind from 346 at 4 knots gusting 8

Air temperature 11.1° C
Dewpoint 2.7° C

Last reported at 2017-Mar-28 01:54 UTC.
Time now 2017-Mar-28 02:31 UTC

Location: N 35°35' E 139°40'.
View on Google Maps.

See reports from other nearby stations

  
Tides and Currents Weather Stations Pressure Air Temp Water Temp Dewpoint Dewpoint Depression Visibility Wind Speed Wind Dir Waves Ship Positions
date/time (UTC)wind fromknots sea level pressurealtimeterstation pressurevisibilityair tempwater tempwave heightnotes
2017-Mar-28 01:54 346 4 gusting 8 11.1
2017-Mar-28 01:33 035 1 gusting 5 11.1
2017-Mar-28 01:24 038 1 gusting 6 11.1
2017-Mar-28 01:03 348 3 gusting 11 10.6
2017-Mar-28 00:54 340 3 gusting 8 10.6
2017-Mar-28 00:33 355 4 gusting 9 10.0
2017-Mar-28 00:24 348 4 gusting 6 9.4
2017-Mar-28 00:03 263 0 gusting 3 10.0
2017-Mar-27 23:54 320 9.4
2017-Mar-27 23:33 044 4 gusting 6 8.9
2017-Mar-27 23:24 027 2 gusting 6 8.3
2017-Mar-27 23:03 321 1 gusting 3 7.2
2017-Mar-27 22:54 319 0 gusting 5 7.2
2017-Mar-27 22:33 355 2 gusting 4 6.7
2017-Mar-27 22:24 350 6.7
2017-Mar-27 22:03 029 6.1
2017-Mar-27 21:54 033 5.6
2017-Mar-27 21:33 009 1 gusting 4 5.6
2017-Mar-27 21:24 005 5.0
2017-Mar-27 21:03 024 5.0
2017-Mar-27 20:54 042 0 gusting 3 5.0
2017-Mar-27 20:33 346 0 gusting 4 5.0
2017-Mar-27 20:24 021 2 gusting 4 5.0
2017-Mar-27 20:03 029 0 gusting 3 4.4
2017-Mar-27 19:54 4.4
2017-Mar-27 19:33 016 4.4
2017-Mar-27 19:24 349 4.4
2017-Mar-27 19:03 036 3.9
2017-Mar-27 18:54 036 3.9
2017-Mar-27 18:33 035 3.9
2017-Mar-27 18:24 035 3.9
2017-Mar-27 18:03 035 3.9
2017-Mar-27 17:54 034 4.4
2017-Mar-27 17:33 036 4.4
2017-Mar-27 17:24 034 4.4
2017-Mar-27 17:03 035 5.0
2017-Mar-27 16:54 036 5.0
2017-Mar-27 16:33 034 5.0
2017-Mar-27 16:24 035 5.0
2017-Mar-27 16:03 036 5.0
2017-Mar-27 15:54 036 5.0
2017-Mar-27 15:33 035 4.4
2017-Mar-27 15:24 036 5.0
2017-Mar-27 15:03 034 5.0
2017-Mar-27 14:54 035 5.0
2017-Mar-27 14:33 036 5.6
2017-Mar-27 14:24 034 5.6
2017-Mar-27 14:03 036 5.6
2017-Mar-27 13:54 034 5.6
2017-Mar-27 13:33 036 5.6
2017-Mar-27 13:24 036 5.6
2017-Mar-27 13:03 035 5.6
2017-Mar-27 12:54 035 6.1
2017-Mar-27 12:33 034 6.1
2017-Mar-27 12:24 035 6.1
2017-Mar-27 12:03 035 6.7
2017-Mar-27 11:54 035 6.7
2017-Mar-27 11:33 034 6.7
2017-Mar-27 11:24 035 7.2
2017-Mar-27 11:03 035 7.2
2017-Mar-27 10:54 036 1 gusting 3 7.2
2017-Mar-27 10:33 036 7.2
2017-Mar-27 10:24 041 1 gusting 3 7.2
2017-Mar-27 10:03 019 2 gusting 4 7.8
2017-Mar-27 09:54 034 7.8
2017-Mar-27 09:33 029 0 gusting 5 7.8
2017-Mar-27 09:24 029 7.8
2017-Mar-27 09:03 029 5 gusting 6 7.8
2017-Mar-27 08:54 028 4 gusting 6 7.8
2017-Mar-27 08:33 046 2 gusting 6 8.3
2017-Mar-27 08:24 041 5 gusting 7 8.3
2017-Mar-27 08:03 029 5 gusting 9 8.9
2017-Mar-27 07:54 021 6 gusting 6 8.9
2017-Mar-27 07:33 011 4 gusting 5 9.4
2017-Mar-27 07:24 033 5 gusting 8 9.4
2017-Mar-27 07:03 017 6 gusting 7 9.4
2017-Mar-27 06:54 019 2 gusting 9 10.0
2017-Mar-27 06:33 027 7 gusting 9 10.0
2017-Mar-27 06:24 033 6 gusting 15 9.4
2017-Mar-27 06:03 034 6 gusting 6 8.9
2017-Mar-27 05:54 044 4 gusting 6 8.3
2017-Mar-27 05:33 013 6 gusting 8 7.8
2017-Mar-27 05:24 015 5 gusting 11 7.2
2017-Mar-27 05:03 355 6 gusting 9 6.7
2017-Mar-27 04:54 355 6 gusting 10 6.7
2017-Mar-27 04:33 355 6 gusting 8 6.7
2017-Mar-27 04:24 335 5 gusting 8 6.1
2017-Mar-27 04:03 341 2 gusting 4 6.7
2017-Mar-27 03:54 318 5 gusting 7 6.1
2017-Mar-27 03:33 034 1 gusting 9 6.1
2017-Mar-27 03:24 009 3 gusting 11 5.6
2017-Mar-27 03:03 338 3 gusting 9 5.6
2017-Mar-27 02:57 271 4 gusting 6 5.6
2017-Mar-27 02:54 271 4 gusting 6 5.6
2017-Mar-27 02:33 018 5 gusting 10 5.6
2017-Mar-27 02:24 027 3 gusting 10 5.6
2017-Mar-27 02:03 018 6 gusting 7 5.0
2017-Mar-27 01:54 302 2 gusting 6 5.0
2017-Mar-27 01:33 030 6 gusting 8 5.0
2017-Mar-27 01:24 024 4 gusting 9 4.4
2017-Mar-27 01:03 017 4 gusting 7 4.4
2017-Mar-27 00:54 341 3 gusting 6 4.4
2017-Mar-27 00:33 336 5.0
2017-Mar-27 00:24 329 0 gusting 3 4.4
2017-Mar-27 00:03 3.9
2017-Mar-26 23:54 052 6 gusting 9 3.9
2017-Mar-26 23:33 014 6 gusting 16 3.3
2017-Mar-26 23:24 009 6 gusting 11 2.8
2017-Mar-26 23:03 317 5 gusting 13 2.8
2017-Mar-26 22:54 331 2 gusting 4 2.8
2017-Mar-26 22:33 319 2 gusting 10 2.8
2017-Mar-26 22:24 337 3 gusting 9 2.8
2017-Mar-26 22:03 2.2
2017-Mar-26 21:54 344 2 gusting 6 2.2
2017-Mar-26 21:33 338 1 gusting 7 1.7
2017-Mar-26 21:24 312 2.2
2017-Mar-26 21:03 340 0 gusting 5 2.8
2017-Mar-26 20:54 022 1 gusting 6 2.8
2017-Mar-26 20:33 010 0 gusting 0 2.8
2017-Mar-26 20:24 029 4 gusting 6 2.8
2017-Mar-26 20:03 014 4 gusting 8 3.3
2017-Mar-26 19:54 026 5 gusting 8 3.3
2017-Mar-26 19:33 338 4 gusting 8 3.9
2017-Mar-26 19:24 018 5 gusting 11 3.9
2017-Mar-26 19:03 338 3 gusting 7 3.9
2017-Mar-26 18:54 281 3 gusting 12 4.4
2017-Mar-26 18:33 036 4 gusting 8 4.4
2017-Mar-26 18:24 355 1 gusting 6 4.4
2017-Mar-26 18:03 262 0 gusting 7 4.4
2017-Mar-26 17:54 355 1 gusting 6 4.4
2017-Mar-26 17:33 273 0 gusting 1 4.4
2017-Mar-26 17:24 311 4.4
2017-Mar-26 17:03 328 3 gusting 4 5.0
2017-Mar-26 16:54 337 1 gusting 5 5.0
2017-Mar-26 16:33 315 1 gusting 4 5.0
2017-Mar-26 16:24 033 0 gusting 5 5.0
2017-Mar-26 16:03 329 3 gusting 6 5.0
2017-Mar-26 15:54 349 1 gusting 4 5.0
2017-Mar-26 15:33 023 2 gusting 5 5.6
2017-Mar-26 15:24 055 1 gusting 6 5.6
2017-Mar-26 15:03 013 3 gusting 8 5.6
2017-Mar-26 14:54 355 1 gusting 4 5.6
2017-Mar-26 14:33 5.6
2017-Mar-26 14:24 325 1 gusting 5 5.6
2017-Mar-26 14:03 340 2 gusting 6 5.6
2017-Mar-26 13:54 299 5.6
2017-Mar-26 13:33 350 5.6
2017-Mar-26 13:24 024 3 gusting 6 5.6
2017-Mar-26 13:03 327 0 gusting 7 5.6
2017-Mar-26 12:54 018 0 5.6
2017-Mar-26 12:33 5.6
2017-Mar-26 12:24 345 1 gusting 4 5.6
2017-Mar-26 12:03 339 3 gusting 7 6.1
2017-Mar-26 11:54 342 1 gusting 4 6.1
2017-Mar-26 11:33 6.1
2017-Mar-26 11:24 013 3 gusting 10 6.1
2017-Mar-26 11:03 300 2 gusting 6 6.1
2017-Mar-26 10:54 328 1 gusting 5 6.1
2017-Mar-26 10:33 325 2 gusting 7 6.1
2017-Mar-26 10:24 296 6.1
2017-Mar-26 10:03 323 0 gusting 3 6.1
2017-Mar-26 09:54 351 6.1
2017-Mar-26 09:33 303 6.1
2017-Mar-26 09:24 331 6.1
2017-Mar-26 09:03 026 6.1
2017-Mar-26 08:54 315 0 gusting 5 6.1
2017-Mar-26 08:33 355 6.1
2017-Mar-26 08:24 009 0 gusting 5 6.1
2017-Mar-26 08:03 338 0 6.1
2017-Mar-26 07:54 355 3 gusting 4 6.1
2017-Mar-26 07:33 355 6.1
2017-Mar-26 07:24 313 6.1
2017-Mar-26 07:03 015 1 gusting 4 6.1
2017-Mar-26 06:54 355 1 gusting 3 6.1
2017-Mar-26 06:33 336 6.1
2017-Mar-26 06:24 353 1 gusting 4 6.1
2017-Mar-26 06:03 348 6.1
2017-Mar-26 05:54 6.1
2017-Mar-26 05:33 321 6.1
2017-Mar-26 05:24 6.1
2017-Mar-26 05:03 329 1 gusting 1 5.6
2017-Mar-26 04:54 355 1 gusting 1 5.6
2017-Mar-26 04:33 014 5.6
2017-Mar-26 04:24 009 2 gusting 6 5.6
2017-Mar-26 04:03 355 1 gusting 4 5.0
2017-Mar-26 03:54 5.6
2017-Mar-26 03:33 322 1 gusting 6 5.6
2017-Mar-26 03:24 292 0 gusting 6 5.0
2017-Mar-26 03:03 327 5.6
2017-Mar-26 02:54 017 1 gusting 4 5.6
2017-Mar-26 02:33 345 0 gusting 3 5.6
2017-Mar-26 02:24 355 5.6
2017-Mar-26 02:03 329 3 gusting 8 5.6